Gewässerkundlicher Dienst Bayern

Monatsgrafik Heppdiel

Lufttemperatur vom 01.05.2026 bis zum 05.05.2026
Hinweis
Luftfeuchtegeber defekt.
Lufttemperatur vom 01.05.2026 bis zum 05.05.2026
DatumLufttemperatur [°C]
05.05.2026 04:0012,0
05.05.2026 03:0012,5
05.05.2026 02:0012,8
05.05.2026 01:0013,0
05.05.2026 00:0014,2
04.05.2026 23:0014,3
04.05.2026 22:0014,5
04.05.2026 21:0014,2
04.05.2026 20:0015,8
04.05.2026 19:0018,3
04.05.2026 18:0019,5
04.05.2026 17:0020,1
04.05.2026 16:0020,7
04.05.2026 15:0020,7
04.05.2026 14:0020,3
04.05.2026 13:0020,8
04.05.2026 12:0021,2
04.05.2026 11:0020,5
04.05.2026 10:0019,6
04.05.2026 09:0018,1
04.05.2026 08:0015,1
04.05.2026 07:0012,9
04.05.2026 06:008,4
04.05.2026 05:007,9
04.05.2026 04:007,9
04.05.2026 03:009,6
04.05.2026 02:0012,4
04.05.2026 01:0013,9
04.05.2026 00:0014,8
03.05.2026 23:0015,7
03.05.2026 22:0017,0
03.05.2026 21:0018,1
03.05.2026 20:0018,1
03.05.2026 19:0019,1
03.05.2026 18:0020,6
03.05.2026 17:0021,7
03.05.2026 16:0022,2
03.05.2026 15:0022,8
03.05.2026 14:0022,7
03.05.2026 13:0023,9
03.05.2026 12:0023,4
03.05.2026 11:0021,0
03.05.2026 10:0020,5
03.05.2026 09:0019,3
03.05.2026 08:0014,2
03.05.2026 07:0010,6
03.05.2026 06:009,2
03.05.2026 05:008,7
03.05.2026 04:007,7
03.05.2026 03:009,0
03.05.2026 02:009,1
03.05.2026 01:0010,2
03.05.2026 00:0010,9
02.05.2026 23:0012,1
02.05.2026 22:0011,4
02.05.2026 21:0012,8
02.05.2026 20:0017,5
02.05.2026 19:0021,5
02.05.2026 18:0023,4
02.05.2026 17:0023,7
02.05.2026 16:0024,1
02.05.2026 15:0024,8
02.05.2026 14:0023,6
02.05.2026 13:0023,3
02.05.2026 12:0022,4
02.05.2026 11:0020,6
02.05.2026 10:0018,1
02.05.2026 09:0015,5
02.05.2026 08:0011,9
02.05.2026 07:009,3
02.05.2026 06:005,3
02.05.2026 05:004,1
02.05.2026 04:004,5
02.05.2026 03:005,6
02.05.2026 02:007,2
02.05.2026 01:006,2
02.05.2026 00:007,7
01.05.2026 23:007,8
01.05.2026 22:0010,8
01.05.2026 21:0013,7
01.05.2026 20:0016,9
01.05.2026 19:0019,6
01.05.2026 18:0020,7
01.05.2026 17:0021,1
01.05.2026 16:0020,9
01.05.2026 15:0020,5
01.05.2026 14:0019,7
01.05.2026 13:0018,7
01.05.2026 12:0017,6
01.05.2026 11:0016,0
01.05.2026 10:0013,7
01.05.2026 09:0012,4
01.05.2026 08:009,6
01.05.2026 07:006,7
01.05.2026 06:002,3
01.05.2026 05:002,0
01.05.2026 04:002,9
01.05.2026 03:005,2
01.05.2026 02:006,4
01.05.2026 01:008,4
01.05.2026 00:009,4
Ihre Auswahl wurde erfolgreich in den Download-Korb gelegt.